Location: Unspecified
(47.6577°N, 23.5639°E)
Time: 13:42:10
(UTC+02:00)

ISS - Pass Details

Date: 03 February 2017
Orbit: 399 x 409 km, 51.6° (Epoch: 25 March)

Event Time Altitude Azimuth Distance (km) Brightness Sun altitude
Rises 19:43:36 0° 272° (W) 2,326 1.5 -22.7°
Reaches altitude 10° 19:45:45 10° 280° (W) 1,464 0.1 -23.0°
Enters shadow 19:48:03 33° 313° (NW) 698 -2.3 -23.4°
